Groton, CT

9:55 PM EST on November 20, 2017 (GMT -0500)
Groton-New London

Weather History for KGON - December, 2014

Change the Weather History Date:

Sunday, December 7, 2014

  Actual Average Record
Temperature  
Mean Temperature 32 °F -  
Max Temperature 39 °F 45 °F 69 °F (1998)
Min Temperature 23 °F 27 °F 12 °F (1964)
Degree Days  
Heating Degree Days 34    
Moisture  
Dew Point 22 °F    
Average Humidity 64    
Maximum Humidity 100    
Minimum Humidity 32    
Precipitation  
Precipitation 0.03 in - - ()
Sea Level Pressure  
Sea Level Pressure 30.38 in    
Wind  
Wind Speed 17 mph (North)    
Max Wind Speed 23 mph    
Max Gust Speed 33 mph    
Visibility 8 miles    
Events Rain    
Averages and records for this station are not official NWS values.
T = Trace of Precipitation, MM = Missing Value Source: NWS Daily Summary

Daily Weather History Graph

Daily Weather History Graph

Search for Another Location

Airport or City:

Trip Planner

Search our weather history database for the weather conditions in past years. The results will help you decide how hot, cold, wet, or windy it might be!

Date:

Astronomy

Dec. 07, 2014 Rise Set
Actual Time 7:00 AM EST 4:18 PM EST
Civil Twilight 6:29 AM EST 4:49 PM EST
Nautical Twilight 5:54 AM EST 5:24 PM EST
Astronomical Twilight 5:21 AM EST 5:57 PM EST
Moon 5:45 PM EST (12/7) 7:41 AM EST (12/7)
Length of Visible Light 10h 20m
Length of Day
9h 18m
Full, 98% of the Moon is Illuminated
Dec 7
Full
Dec 14
Last Quarter
Dec 21
New
Dec 28
First Quarter
Jan 4
Full

Hourly Weather History & Observations

Time (EST) Temp. Windchill Dew Point Humidity Pressure Visibility Wind Dir Wind Speed Gust Speed Precip Events Conditions
12:56 AM 39.0 °F 30.3 °F 37.9 °F 96% 30.17 in 5.0 mi North 16.1 mph 29.9 mph 0.00 in Rain Light Rain
1:18 AM 39.0 °F 28.5 °F 37.9 °F 96% 30.17 in 4.0 mi North 23.0 mph 29.9 mph 0.01 in Rain Light Rain
1:38 AM 39.0 °F 29.9 °F 37.9 °F 96% 30.18 in 6.0 mi North 17.3 mph 25.3 mph 0.01 in Rain Light Rain
1:56 AM 39.0 °F 31.4 °F 37.0 °F 93% 30.20 in 6.0 mi North 12.7 mph 24.2 mph 0.01 in Rain Light Rain
2:22 AM 37.9 °F 28.5 °F 37.0 °F 97% 30.21 in 5.0 mi North 17.3 mph 28.8 mph 0.00 in Rain Light Rain
2:48 AM 37.9 °F 28.2 °F 36.0 °F 93% 30.23 in 4.0 mi North 18.4 mph - 0.02 in Rain Rain
2:56 AM 37.0 °F 28.1 °F 37.0 °F 100% 30.22 in 4.0 mi North 15.0 mph 27.6 mph 0.02 in Rain Rain
3:56 AM 37.9 °F 28.5 °F 35.1 °F 89% 30.24 in 8.0 mi North 17.3 mph 23.0 mph 0.00 in   Overcast
4:19 AM 37.0 °F 27.4 °F 34.0 °F 89% 30.24 in 8.0 mi NNE 17.3 mph - N/A   Overcast
4:52 AM 37.4 °F 27.8 °F 33.8 °F 87% 30.26 in 8.0 mi North 17.3 mph 25.3 mph N/A   Mostly Cloudy
4:56 AM 37.0 °F 26.7 °F 32.0 °F 82% 30.27 in 8.0 mi North 19.6 mph 31.1 mph N/A   Mostly Cloudy
5:56 AM 36.0 °F 26.0 °F 30.0 °F 79% 30.30 in 7.0 mi North 17.3 mph 26.5 mph N/A   Clear
6:56 AM 35.1 °F 24.5 °F 28.0 °F 76% 30.34 in 7.0 mi North 18.4 mph 25.3 mph N/A   Clear
7:56 AM 34.0 °F 24.2 °F 26.1 °F 73% 30.37 in 10.0 mi North 15.0 mph - N/A   Clear
8:56 AM 35.1 °F 24.5 °F 24.1 °F 64% 30.40 in 10.0 mi North 18.4 mph 28.8 mph N/A   Clear
9:56 AM 35.1 °F 24.8 °F 21.9 °F 59% 30.43 in 10.0 mi North 17.3 mph 26.5 mph N/A   Clear
10:56 AM 37.0 °F 25.9 °F 19.9 °F 50% 30.43 in 7.0 mi NNE 23.0 mph 29.9 mph N/A   Clear
11:56 AM 39.0 °F 29.3 °F 17.1 °F 41% 30.43 in 7.0 mi North 19.6 mph 32.2 mph N/A   Clear
12:56 PM 39.9 °F 30.5 °F 16.0 °F 38% 30.44 in 7.0 mi North 19.6 mph 32.2 mph N/A   Clear
1:56 PM 39.9 °F 30.8 °F 12.9 °F 33% 30.44 in 10.0 mi North 18.4 mph 27.6 mph N/A   Clear
2:56 PM 39.9 °F 30.5 °F 12.0 °F 32% 30.45 in 8.0 mi NNE 19.6 mph 27.6 mph N/A   Clear
3:56 PM 37.9 °F 28.9 °F 10.9 °F 33% 30.48 in 8.0 mi NNE 16.1 mph 26.5 mph N/A   Clear
4:56 PM 35.1 °F 26.4 °F 10.9 °F 37% 30.51 in 9.0 mi North 12.7 mph 19.6 mph N/A   Clear
5:56 PM 33.1 °F 22.2 °F 8.1 °F 35% 30.53 in 9.0 mi North 17.3 mph 26.5 mph N/A   Clear
6:56 PM 30.9 °F 19.8 °F 8.1 °F 38% 30.56 in 9.0 mi NNE 16.1 mph 25.3 mph N/A   Clear
7:56 PM 30.0 °F 17.2 °F 6.1 °F 36% 30.58 in 9.0 mi NNE 20.7 mph 33.4 mph N/A   Clear
8:56 PM 27.0 °F 16.1 °F 7.0 °F 43% 30.58 in 9.0 mi North 12.7 mph 25.3 mph N/A   Clear
9:56 PM 26.1 °F 14.5 °F 6.1 °F 43% 30.61 in 9.0 mi North 13.8 mph 21.9 mph N/A   Clear
10:56 PM 24.1 °F 13.7 °F 6.1 °F 46% 30.62 in 9.0 mi NNE 10.4 mph - N/A   Clear
11:56 PM 23.0 °F 10.1 °F 3.9 °F 44% 30.63 in 8.0 mi NNE 15.0 mph - N/A   Clear